Варняй

Литва     55°44′33″N   22°22′16″E
темп.,
°C
ветер,
м/с
пор.,
м/с
влажн.,
%
обл.,
%
осадки,
мм/ч
давл.,
гПа
погр.,
м
6 мая, чт
чт600:00+5ю398489 0.0 997226
03:00+3ююз3119379 0.0 997297
06:00+4юз51190100 0.0 996861
09:00+4юз71497100 2.4 9961344
12:00+4юз81597100 2.8 9971121
15:00+4юз91697100 4.5 9991164
18:00+4зюз91791100 0.5 10001433
21:00+4зюз61490100 0.6 10011134
7 мая, пт
пт700:00+4юз61289100 0.0 1002993
03:00+4юз51190100 0.1 1002900
06:00+4юз5991100 0.2 1002920
09:00+4юз4889100 0.4 1003715
12:00+7юз5675100 0.6 10041153
15:00+8зюз4564100 0.9 10041322
18:00+7з4463100 0.0 10041035
21:00+4зсз3680100 0.0 1005407
8 мая, сб
сб800:00+1зсз3894100 0.0 1006290
03:000зсз399817 0.0 1007284
06:00−1з3109883 0.0 1009255
09:00+5з477349 0.0 1009957
12:00+7зсз477153 1.1 10101197
15:00+10зсз694888 2.3 10112219
18:00+9зсз57435 0.0 10131834
21:00+4з36810 0.0 1015143
9 мая, вс
вс900:00+1юз269825 0.0 1017126
03:00+1юз399849 0.0 1018211
06:00+2юз41097100 0.0 1018263
09:00+6юз4870100 0.0 1019458
12:00+10ююз575197 0.0 10191161
15:00+11ююз5859100 0.0 10181705
18:00+10ю61373100 0.3 10161024
21:00+11ю6147198 0.3 1016705
10 мая, пн
пн1000:00+10ю51483100 0.0 1017390
03:00+9ю51488100 0.0 1018349
06:00+8ю4138795 0.0 1018297
09:00+12ю5117245 0.0 1019371
12:00+17ю61057100 0.0 1018834
15:00+19ю6105368 0.0 10181090
18:00+19ююв61160100 0.0 10171139
21:00+15ююв613735 0.0 1018544